When you browse on this site, cookies collect data to enhance your experience and personalize the content and advertising you see.
Visit our Privacy Policy to learn more. By continuing to use the site, you agree to this use of cookies and data.
  • In United Kingdom
  • List of Countries
  • For 7 days
  • Water Temperature
  • Weather Map
  • Weather Widgets
  • user-avatar
    Login

    Hourly Weather Vidin

    Today, 22 October, Tuesday

    Time Temperature Precipitation Wind Pressure Humidity
    00:00 +17°C° 0 mm 0 mps 763 mmHg 56%
    01:00 +16°C° 0 mm 0 mps 764 mmHg 58%
    02:00 +16°C° 0 mm 0 mps 764 mmHg 60%
    03:00 +16°C° 0 mm 0 mps 764 mmHg 61%
    04:00 +15°C° 0 mm 0 mps 764 mmHg 63%
    05:00 +15°C° 0 mm 0 mps 764 mmHg 65%
    06:00 +15°C° 0 mm 0 mps 764 mmHg 63%
    07:00 +16°C° 0 mm 0 mps 764 mmHg 62%
    08:00 +16°C° 0 mm 0 mps 764 mmHg 61%
    09:00 +20°C° 0 mm 1 mps 764 mmHg 54%
    10:00 +22°C° 0 mm 1 mps 764 mmHg 47%
    11:00 +25°C° 0 mm 1 mps 764 mmHg 40%
    12:00 +26°C° 0 mm 1 mps 764 mmHg 37%
    13:00 +27°C° 0 mm 2 mps 764 mmHg 34%
    14:00 +28°C° 0 mm 2 mps 763 mmHg 31%
    15:00 +27°C° 0 mm 2 mps 763 mmHg 32%
    16:00 +27°C° 0 mm 2 mps 763 mmHg 34%
    17:00 +26°C° 0 mm 2 mps 763 mmHg 35%
    18:00 +24°C° 0 mm 2 mps 763 mmHg 39%
    19:00 +23°C° 0 mm 1 mps 763 mmHg 43%
    20:00 +21°C° 0 mm 1 mps 764 mmHg 48%
    21:00 +21°C° 0 mm 1 mps 764 mmHg 50%
    22:00 +20°C° 0 mm 1 mps 764 mmHg 53%
    23:00 +19°C° 0 mm 1 mps 764 mmHg 56%

    Tomorrow, 23 October, Wednesday

    Time Temperature Precipitation Wind Pressure Humidity
    00:00 +19°C° 0 mm 1 mps 764 mmHg 58%
    01:00 +18°C° 0 mm 1 mps 764 mmHg 60%
    02:00 +18°C° 0 mm 1 mps 764 mmHg 62%
    03:00 +16°C° 0 mm 1 mps 764 mmHg 65%
    04:00 +16°C° 0 mm 1 mps 764 mmHg 67%
    05:00 +15°C° 0 mm 1 mps 763 mmHg 70%
    06:00 +15°C° 0 mm 1 mps 763 mmHg 68%
    07:00 +15°C° 0 mm 0 mps 764 mmHg 67%
    08:00 +15°C° 0 mm 0 mps 764 mmHg 65%
    09:00 +19°C° 0 mm 1 mps 763 mmHg 57%
    10:00 +21°C° 0 mm 1 mps 763 mmHg 48%
    11:00 +24°C° 0 mm 1 mps 763 mmHg 40%
    12:00 +25°C° 0 mm 2 mps 762 mmHg 36%
    13:00 +26°C° 0 mm 2 mps 762 mmHg 32%
    14:00 +27°C° 0 mm 2 mps 762 mmHg 28%
    15:00 +27°C° 0 mm 2 mps 761 mmHg 29%
    16:00 +26°C° 0 mm 2 mps 761 mmHg 29%
    17:00 +25°C° 0 mm 2 mps 761 mmHg 30%
    18:00 +23°C° 0 mm 1 mps 761 mmHg 33%
    19:00 +22°C° 0 mm 1 mps 761 mmHg 36%
    20:00 +20°C° 0 mm 1 mps 762 mmHg 39%
    21:00 +20°C° 0 mm 1 mps 762 mmHg 41%
    22:00 +19°C° 0 mm 1 mps 762 mmHg 43%
    23:00 +16°C° 0 mm 0 mps 762 mmHg 45%

    Day after tomorrow, 24 October, Thursday

    Time Temperature Precipitation Wind Pressure Humidity
    00:00 +18°C° 0 mm 1 mps 762 mmHg 47%
    01:00 +16°C° 0 mm 1 mps 762 mmHg 49%
    02:00 +16°C° 0 mm 1 mps 762 mmHg 51%
    03:00 +15°C° 0 mm 1 mps 761 mmHg 53%
    04:00 +15°C° 0 mm 1 mps 761 mmHg 56%
    05:00 +14°C° 0 mm 1 mps 761 mmHg 59%
    06:00 +15°C° 0 mm 1 mps 761 mmHg 58%
    07:00 +14°C° 0 mm 0 mps 761 mmHg 58%
    08:00 +14°C° 0 mm 0 mps 761 mmHg 57%
    09:00 +18°C° 0 mm 1 mps 761 mmHg 51%
    10:00 +21°C° 0 mm 1 mps 761 mmHg 44%
    11:00 +23°C° 0 mm 2 mps 760 mmHg 37%
    12:00 +24°C° 0 mm 2 mps 760 mmHg 33%
    13:00 +26°C° 0 mm 2 mps 760 mmHg 29%
    14:00 +27°C° 0 mm 3 mps 759 mmHg 25%
    15:00 +26°C° 0 mm 3 mps 759 mmHg 26%
    16:00 +25°C° 0 mm 2 mps 759 mmHg 28%
    17:00 +25°C° 0 mm 2 mps 759 mmHg 29%
    18:00 +23°C° 0 mm 2 mps 759 mmHg 33%
    19:00 +20°C° 0 mm 2 mps 759 mmHg 37%
    20:00 +19°C° 0 mm 2 mps 760 mmHg 40%
    21:00 +18°C° 0 mm 2 mps 760 mmHg 44%
    22:00 +17°C° 0 mm 2 mps 760 mmHg 47%
    23:00 +16°C° 0 mm 1 mps 760 mmHg 50%

    25 October, Friday

    Time Temperature Precipitation Wind Pressure Humidity
    00:00 +16°C° 0 mm 1 mps 760 mmHg 53%
    01:00 +15°C° 0 mm 1 mps 760 mmHg 55%
    02:00 +15°C° 0 mm 1 mps 760 mmHg 57%
    03:00 +14°C° 0 mm 1 mps 760 mmHg 59%
    04:00 +14°C° 0 mm 1 mps 760 mmHg 62%
    05:00 +13°C° 0 mm 1 mps 760 mmHg 65%
    06:00 +13°C° 0 mm 1 mps 761 mmHg 64%
    07:00 +14°C° 0 mm 1 mps 761 mmHg 63%
    08:00 +14°C° 0 mm 1 mps 761 mmHg 62%
    09:00 +16°C° 0 mm 1 mps 761 mmHg 54%
    10:00 +19°C° 0 mm 1 mps 761 mmHg 46%
    11:00 +21°C° 0 mm 2 mps 761 mmHg 39%
    12:00 +23°C° 0 mm 2 mps 761 mmHg 35%
    13:00 +24°C° 0 mm 2 mps 761 mmHg 32%
    14:00 +25°C° 0 mm 2 mps 761 mmHg 28%
    15:00 +25°C° 0 mm 2 mps 761 mmHg 30%
    16:00 +24°C° 0 mm 1 mps 761 mmHg 31%
    17:00 +23°C° 0 mm 1 mps 761 mmHg 33%
    18:00 +21°C° 0 mm 1 mps 761 mmHg 36%
    19:00 +20°C° 0 mm 1 mps 761 mmHg 39%
    20:00 +18°C° 0 mm 1 mps 762 mmHg 42%
    21:00 +18°C° 0 mm 1 mps 762 mmHg 44%
    22:00 +15°C° 0 mm 0 mps 762 mmHg 46%
    23:00 +15°C° 0 mm 0 mps 762 mmHg 47%

    26 October, Saturday

    Time Temperature Precipitation Wind Pressure Humidity
    00:00 +14°C° 0 mm 0 mps 762 mmHg 49%
    01:00 +15°C° 0 mm 1 mps 762 mmHg 50%
    02:00 +14°C° 0 mm 1 mps 762 mmHg 52%
    03:00 +13°C° 0 mm 0 mps 762 mmHg 54%
    04:00 +12°C° 0 mm 0 mps 762 mmHg 56%
    05:00 +12°C° 0 mm 0 mps 762 mmHg 58%
    06:00 +12°C° 0 mm 0 mps 762 mmHg 57%
    07:00 +13°C° 0 mm 0 mps 763 mmHg 56%
    08:00 +13°C° 0 mm 0 mps 763 mmHg 55%
    09:00 +15°C° 0 mm 0 mps 763 mmHg 48%
    10:00 +18°C° 0 mm 0 mps 763 mmHg 41%
    11:00 +22°C° 0 mm 1 mps 763 mmHg 35%
    12:00 +23°C° 0 mm 1 mps 762 mmHg 32%
    13:00 +24°C° 0 mm 1 mps 762 mmHg 29%
    14:00 +25°C° 0 mm 1 mps 761 mmHg 27%
    15:00 +24°C° 0 mm 1 mps 761 mmHg 29%
    16:00 +23°C° 0 mm 1 mps 761 mmHg 31%
    17:00 +22°C° 0 mm 1 mps 760 mmHg 32%
    18:00 +21°C° 0 mm 1 mps 761 mmHg 35%
    19:00 +17°C° 0 mm 0 mps 761 mmHg 38%
    20:00 +16°C° 0 mm 0 mps 761 mmHg 41%
    21:00 +16°C° 0 mm 0 mps 761 mmHg 43%
    22:00 +15°C° 0 mm 0 mps 761 mmHg 45%
    23:00 +14°C° 0 mm 0 mps 761 mmHg 46%

    27 October, Sunday

    Time Temperature Precipitation Wind Pressure Humidity
    00:00 +15°C° 0 mm 1 mps 761 mmHg 47%
    01:00 +15°C° 0 mm 1 mps 761 mmHg 49%
    02:00 +14°C° 0 mm 1 mps 761 mmHg 50%
    03:00 +14°C° 0 mm 1 mps 761 mmHg 51%
    04:00 +13°C° 0 mm 1 mps 761 mmHg 52%
    05:00 +13°C° 0 mm 1 mps 761 mmHg 53%
    06:00 +13°C° 0 mm 1 mps 761 mmHg 52%
    07:00 +14°C° 0 mm 1 mps 761 mmHg 51%
    08:00 +14°C° 0 mm 1 mps 761 mmHg 50%
    09:00 +18°C° 0 mm 1 mps 761 mmHg 42%
    10:00 +20°C° 0 mm 2 mps 761 mmHg 35%
    11:00 +23°C° 0 mm 2 mps 761 mmHg 28%
    12:00 +25°C° 0 mm 2 mps 761 mmHg 26%
    13:00 +27°C° 0 mm 3 mps 760 mmHg 23%
    14:00 +28°C° 0 mm 3 mps 760 mmHg 20%
    15:00 +27°C° 0 mm 4 mps 760 mmHg 23%
    16:00 +26°C° 0 mm 4 mps 760 mmHg 26%
    17:00 +23°C° 0 mm 4 mps 760 mmHg 29%
    18:00 +21°C° 0 mm 4 mps 760 mmHg 34%
    19:00 +20°C° 0 mm 4 mps 761 mmHg 38%
    20:00 +18°C° 0 mm 4 mps 761 mmHg 43%
    21:00 +18°C° 0 mm 3 mps 761 mmHg 45%
    22:00 +17°C° 0 mm 3 mps 761 mmHg 47%
    23:00 +16°C° 0 mm 3 mps 762 mmHg 49%
    Show more